CAPE
34 4 10 7 8 10 21 24 12 3 12 16 9 4 1 1 0 0 0 0 1 5 2 7 3 22 15 53 73 111 70 23 21 10 37 32 93 104 75 61 37 7 0
4 3 9 7 12 13 14 21 8 2 2 16 21 4 4 2 1 0 0 0 0 3 4 0 0 0 4 0 1 27 1 5 24 5 1 36 156 89 85 68 103 76 131
14 13 8 5 12 17 11 39 27 30 20 23 31 21 11 7 4 2 1 1 7 14 1 0 0 0 3 2 0 0 1 7 52 102 111 99 71 101 113 133 211 158 75
5 10 10 7 8 12 26 37 21 14 32 36 35 46 45 37 37 60 56 67 53 8 2 1 0 0 5 65 99 153 175 263 216 112 96 51 123 100 178 181 214 237 196
3 4 6 10 11 11 40 34 32 32 21 17 21 15 23 41 20 30 26 23 10 5 3 9 17 14 15 42 86 159 203 249 238 175 106 125 160 137 135 194 201 261 225
2 4 7 1 0 0 0 0 0 0 0 35 44 47 42 0 0 0 0 45 25 17 24 39 31 0 0 0 0 0 0 60 47 45 45 34 57 80 142 194 157 31 7
4 0 1 2 2 2 1 0 1 2 2 1 0 0 0 0 1 0 0 0 3 34 46 33 13 1 0 11 0 0 0 0 0 1 18 11 3 1 0 2 9 20 23
8 5 2 1 3 3 1 2 4 4 2 1 1 2 1 0 1 0 0 0 1 1 1 1 0 0 0 0 0 0 0 0 0 0 0 0 0 1 1 1 1 1 0
2 1 2 2 1 4 2 4 5 4 1 2 2 2 2 2 3 0 0 0 3 2 1 3 1 1 1 0 0 1 0 0 1 1 2 3 2 2 1 0 0 0 0
1 1 2 0 0 1 4 5 4 1 1 1 1 3 1 2 2 0 0 3 2 2 2 2 2 2 1 1 1 2 0 0 1 1 1 1 1 1 1 2 1 1 2
0 0 0 1 3 3 5 7 5 4 3 4 4 5 4 3 4 2 0 3 4 3 4 5 8 2 1 1 1 4 3 2 1 1 2 1 1 1 2 4 4 2 1
1 1 2 3 3 5 6 7 7 6 6 7 7 8 9 8 4 4 3 2 2 4 7 9 12 4 3 2 4 1 0 1 2 2 2 3 4 4 7 6 9 15 17
0 0 1 1 1 2 4 5 6 5 6 4 6 10 11 11 8 1 0 2 2 16 14 11 1 1 3 6 1 3 3 8 6 7 8 8 12 15 24 20 10 9 5
2 1 1 1 1 2 5 5 7 9 8 8 9 12 12 10 11 9 8 11 5 10 7 20 6 7 8 10 20 23 28 26 23 14 14 17 12 11 11 8 9 7 6
2 1 2 2 2 5 11 11 11 18 8 12 15 15 14 14 13 6 5 8 10 7 23 33 29 26 19 12 14 19 17 15 12 14 9 12 10 11 8 7 3 1 0
4 6 8 8 6 4 4 7 7 6 7 4 2 7 15 5 3 3 1 1 0 1 12 13 15 13 14 12 13 11 10 6 7 7 7 4 3 3 3 1 0 0 0
11 9 9 9 10 9 10 10 8 8 5 6 7 8 7 4 2 2 1 1 0 3 14 15 14 14 13 10 9 7 6 5 1 3 3 4 2 0 1 1 2 0 0
9 5 13 14 14 12 14 13 12 13 12 12 6 5 6 5 3 1 0 1 10 8 11 13 12 12 7 4 3 4 7 7 7 3 7 8 8 5 4 0 2 3 0
10 12 12 12 14 12 14 15 15 15 15 16 14 6 3 0 1 1 2 11 11 7 5 5 9 8 7 9 14 11 9 8 8 11 11 8 10 5 3 4 2 0 0
7 3 6 14 13 13 13 11 11 9 9 11 8 9 9 6 7 8 9 11 9 8 7 4 6 8 11 8 11 11 11 9 9 7 11 12 12 8 6 4 5 5 0
10 9 1 11 11 12 11 8 8 7 5 5 4 3 0 2 5 6 6 9 9 9 12 8 11 11 9 8 8 10 7 13 6 7 9 8 9 10 5 5 5 2 0
11 9 8 8 8 8 5 4 4 2 1 2 4 1 0 7 5 6 7 11 14 10 10 11 9 6 6 6 7 12 4 6 7 9 7 3 6 6 6 5 6 6 3
11 10 6 6 4 0 6 4 6 6 6 7 5 5 7 10 10 9 10 11 9 9 9 10 9 6 8 8 8 9 6 6 6 4 7 9 6 10 9 10 6 7 6
7 8 3 8 9 8 12 11 6 0 4 8 11 10 7 9 11 6 7 10 10 11 9 6 5 2 2 6 10 8 4 4 6 7 2 6 9 5 8 6 6 2 6
12 11 11 11 11 11 9 7 8 9 9 9 10 10 7 7 4 7 7 5 3 5 3 3 5 3 1 0 1 1 0 0 1 0 6 5 4 2 4 7 4 8 4
5 6 7 7 9 9 10 8 8 7 6 7 6 7 7 4 4 5 3 2 1 2 2 3 3 1 1 3 1 1 0 0 0 0 2 9 7 9 9 7 3 9 7
CIN
-406 -88 0 0 -1 -2 0 0 -1 -3 -2 -0 -4 0 0 0 0 0 0 0 -2 0 -0 -10 -0 -4 -2 -19 -49 -34 -61 -91 -36 -40 -16 -32 -14 -0 -1 -25 -46 -86 0
-52 0 -0 0 -1 -1 0 0 -0 -2 -1 0 -0 0 0 0 0 0 0 0 0 0 0 0 0 0 -33 0 -36 -47 -2 -94 -70 -32 -66 -19 -0 -5 -11 -21 -3 -3 -1
-315 -0 0 -3 -1 -0 -1 0 0 0 -0 0 0 -0 -0 0 0 0 0 0 0 -25 -3 0 0 0 -26 -32 0 0 -10 -55 -16 -0 0 0 0 0 0 0 0 0 -1
0 -0 -1 -3 -1 -1 -1 0 -1 -1 0 0 0 0 0 0 0 0 0 0 0 -7 -7 -14 0 0 -13 0 0 0 0 0 0 -0 0 0 0 0 0 0 0 0 0
0 0 0 -0 -3 -3 0 -0 -0 -3 -4 -5 -2 -3 -1 -0 -2 -6 -5 -1 -2 -4 -8 -5 -1 -6 -8 -2 -1 -0 0 0 0 0 0 -0 -2 -1 -3 0 0 0 0
0 0 0 0 0 0 0 0 0 0 0 -2 -1 -0 0 0 0 0 0 0 -1 -3 -1 -1 -1 -0 -0 0 0 0 -1 -23 -11 -1 -0 -1 -9 -5 0 0 0 -2 -1
0 0 0 0 0 0 0 0 0 0 0 0 0 0 0 0 0 0 0 0 -1 -62 -74 -42 -28 -5 0 -1 -0 0 0 0 0 -1 -1 -1 -2 -2 -3 -2 -3 -1 -1
0 0 0 0 0 0 0 0 0 0 0 0 0 0 0 0 0 0 0 0 0 0 -0 0 0 0 0 0 0 0 0 0 0 0 0 0 0 0 0 0 0 0 0
0 0 0 0 0 0 0 0 0 0 0 0 0 0 0 0 0 0 0 0 0 0 0 0 0 0 0 0 0 0 0 0 0 0 0 0 0 0 0 0 0 0 0
0 0 0 0 0 0 0 0 0 0 0 0 0 0 0 0 0 0 0 0 0 0 0 0 0 0 0 0 0 0 0 0 0 0 0 0 0 0 0 0 0 0 0
0 0 0 0 0 0 0 0 0 0 0 0 0 0 0 0 0 0 0 0 0 0 0 0 0 0 0 0 0 0 0 0 0 0 0 0 -0 -0 0 0 0 0 0
0 0 0 0 0 0 0 0 0 0 0 0 0 0 0 0 0 0 0 0 0 0 0 0 0 0 0 0 0 0 0 0 0 0 0 0 0 0 0 0 0 0 0
0 0 0 0 0 0 0 0 0 0 0 0 0 0 0 0 0 -0 0 0 0 0 0 0 0 0 0 0 0 0 -0 0 0 0 0 0 0 0 0 0 0 0 0
0 0 0 0 0 0 0 0 0 0 0 0 0 0 0 0 0 0 0 0 0 0 0 0 -0 -0 0 0 0 0 0 0 0 0 0 0 0 0 0 0 0 0 0
0 0 0 0 0 0 0 0 0 0 0 0 0 0 0 0 0 0 0 0 0 -1 0 0 0 0 0 0 0 0 0 0 0 0 0 0 0 0 0 0 0 0 0
0 0 0 0 0 0 0 0 0 0 0 0 0 -0 0 0 0 0 0 0 0 -1 0 0 0 0 0 0 0 0 0 0 0 0 0 0 0 0 0 0 0 0 0
0 0 0 0 0 0 0 0 0 0 0 0 0 0 0 0 0 0 0 0 0 -0 0 0 0 0 0 0 0 0 0 0 0 0 0 0 0 0 0 0 0 0 0
0 0 0 0 0 0 0 0 0 0 0 0 0 0 0 0 0 0 -0 -0 0 0 0 0 0 0 0 0 0 0 0 0 0 0 0 0 0 0 0 0 0 0 0
0 0 0 0 0 0 0 0 0 0 0 0 0 0 0 -0 0 0 0 0 0 0 0 0 0 0 0 0 0 0 0 0 0 0 0 0 0 0 0 0 0 0 0
0 0 0 0 0 0 0 0 0 0 0 0 0 0 0 0 0 0 0 0 0 0 0 0 0 0 0 0 0 0 0 0 0 0 0 0 0 0 0 0 0 0 0
0 0 0 0 0 0 0 0 0 0 0 0 0 0 0 0 0 0 0 0 0 0 0 0 0 0 0 0 0 0 0 0 0 0 0 0 0 0 0 0 0 0 0
0 0 0 0 0 0 0 0 0 0 0 0 0 0 0 0 0 0 0 0 0 0 0 0 0 0 0 0 0 0 0 0 0 0 0 0 0 0 0 0 0 0 0
0 0 0 0 0 0 0 0 0 0 0 0 0 0 0 0 0 0 0 0 0 0 0 0 0 0 0 0 0 0 0 0 0 0 0 0 0 0 0 0 0 0 0
0 0 0 0 0 0 0 0 0 0 0 0 0 0 0 0 0 0 0 0 0 0 0 0 0 0 0 0 0 0 0 0 0 0 0 0 0 0 0 0 0 0 0
0 0 0 0 0 0 0 0 0 0 0 0 0 0 0 0 0 0 0 0 0 0 0 0 0 0 0 0 0 0 0 0 0 0 0 0 0 0 0 0 0 0 0
0 0 0 0 0 0 0 0 0 0 0 0 0 0 0 0 0 0 0 0 0 0 0 0 0 0 0 0 0 0 0 0 0 0 0 0 0 0 0 0 0 0 0
Wind_Speed
13 15 15 14 11 9 11 11 11 11 11 11 12 10 11 12 12 12 12 13 13 15 15 10 12 13 7 5 5 6 6 4 6 9 11 11 14 15 15 13 13 12 10
12 13 13 12 12 11 10 9 11 11 11 10 13 12 12 13 13 14 15 16 18 19 17 14 13 9 13 10 9 12 9 8 8 15 13 14 18 18 18 19 16 15 15
12 12 12 12 11 12 11 11 11 12 13 13 13 14 15 13 14 15 15 16 21 17 13 14 15 13 13 10 10 10 10 11 13 15 16 13 14 15 17 18 17 17 15
9 8 8 9 9 10 11 11 10 10 9 10 11 12 13 13 14 14 16 15 14 13 14 13 14 15 16 17 17 18 16 15 14 14 15 14 14 16 14 15 14 14 15
10 9 1 7 7 8 10 10 11 10 9 9 10 8 7 7 5 11 11 12 12 13 13 14 15 17 18 17 13 15 16 14 13 13 14 14 14 14 16 14 15 14 15
15 13 12 12 11 10 10 11 10 8 5 1 5 8 11 8 13 16 8 12 14 16 16 18 19 19 19 16 17 19 18 16 15 13 13 15 19 17 15 14 14 13 15
13 13 14 13 13 11 10 10 10 9 9 11 11 12 13 10 16 14 12 7 9 10 11 11 11 8 9 13 17 21 20 20 16 19 18 16 16 14 12 14 15 14 15
12 14 12 14 13 13 12 11 9 10 10 11 11 11 11 12 17 15 12 2 5 7 9 11 9 9 11 11 9 12 11 12 12 10 14 10 8 7 4 4 4 5 7
16 14 15 13 14 10 12 11 10 10 11 11 11 12 12 13 21 19 8 4 10 11 12 15 12 11 17 16 7 7 6 4 15 22 20 17 19 20 14 3 1 1 6
14 15 15 14 15 14 12 13 10 11 11 10 12 12 14 14 23 22 12 7 9 8 10 12 21 15 18 19 8 6 3 5 5 8 9 13 15 14 19 11 5 2 2
13 15 16 16 15 12 9 9 8 10 10 11 12 11 13 15 17 23 19 10 7 8 9 9 10 20 20 22 20 13 10 9 11 10 9 8 9 10 9 9 11 8 5
13 13 14 13 11 8 11 8 10 10 11 11 11 9 8 10 18 20 22 19 13 11 10 8 10 20 23 22 16 20 19 12 8 8 8 8 7 7 7 9 11 12 11
12 13 14 12 12 11 10 10 10 10 9 9 8 8 8 8 8 15 19 20 19 12 10 14 17 17 19 17 23 18 12 8 8 8 8 7 7 7 5 7 7 8 11
11 11 12 12 13 13 11 10 10 9 9 9 8 8 8 8 8 6 6 7 11 10 10 10 10 12 15 14 11 12 10 9 9 9 8 7 6 6 7 7 6 4 6
9 8 9 10 12 14 14 12 11 13 12 8 8 8 8 9 9 12 10 8 8 8 8 7 8 9 9 10 10 10 10 9 9 8 7 7 7 6 7 7 6 6 6
7 7 7 7 6 7 8 11 21 20 23 22 21 11 9 15 15 17 18 17 16 11 9 10 10 9 9 9 9 8 9 10 8 7 7 7 7 7 6 6 6 6 6
8 7 6 6 5 6 6 6 6 10 21 21 21 20 19 15 15 16 19 21 17 12 10 9 8 8 8 7 7 7 8 8 7 7 7 7 6 5 6 6 5 5 5
9 10 6 6 6 6 7 6 5 6 6 7 14 15 18 19 19 15 9 9 10 12 9 8 8 8 8 8 7 8 7 7 7 7 7 7 6 6 6 6 6 6 5
8 7 7 7 7 7 6 6 6 6 6 6 5 8 9 12 16 19 17 9 9 9 8 8 8 8 8 8 7 7 7 7 7 6 7 6 6 6 6 5 5 6 6
7 8 7 5 5 5 5 6 6 6 6 6 7 8 7 7 9 9 10 9 8 8 8 8 8 8 8 7 7 7 6 7 6 6 6 6 6 5 5 5 5 5 5
4 5 5 5 5 5 5 5 5 5 5 6 7 8 10 7 8 8 8 8 8 8 8 7 7 7 7 7 7 6 6 6 6 6 6 5 5 5 4 4 4 4 5
4 4 5 5 5 6 5 5 6 6 6 6 6 7 9 8 7 7 8 8 7 7 7 6 6 7 7 7 6 6 5 6 6 6 5 4 5 4 4 4 4 4 4
5 5 5 5 5 5 5 5 5 5 6 6 6 6 7 7 7 7 7 7 6 6 7 6 6 5 5 5 5 6 6 6 6 6 6 5 5 5 4 4 4 4 5
5 5 5 5 5 5 5 5 5 7 6 5 6 6 6 5 5 6 5 5 5 5 5 4 4 6 6 5 5 5 6 7 6 5 6 6 5 3 4 4 4 4 4
5 5 5 5 5 5 4 5 5 5 5 4 4 4 4 4 4 4 4 3 3 3 3 3 4 5 5 5 5 7 7 8 7 8 6 6 5 6 4 5 4 5 4
5 5 4 4 4 4 4 4 3 3 3 3 3 3 3 3 3 3 2 2 2 2 4 3 4 5 6 3 5 6 7 8 8 8 7 6 5 5 5 5 5 6 5
Wind_Direction
165 175 167 172 192 179 185 172 171 167 171 172 173 169 173 178 177 187 191 195 214 214 220 216 225 230 246 225 229 222 222 172 241 270 267 275 274 250 247 234 245 242 242
154 172 171 165 181 176 188 176 172 175 183 182 178 173 176 183 189 196 199 204 213 225 214 212 218 214 226 219 218 229 225 207 223 248 249 253 244 250 255 256 255 245 243
149 169 179 170 174 173 187 187 175 183 183 195 189 183 188 190 191 198 205 211 215 225 219 220 228 223 229 229 222 225 226 230 229 239 249 249 251 249 248 250 251 250 248
138 159 166 164 170 166 201 169 175 188 198 191 200 199 198 201 207 208 214 218 214 217 220 221 226 228 228 230 230 236 238 240 238 236 247 248 248 252 251 255 249 238 243
75 67 93 168 164 180 195 177 175 180 188 194 197 213 217 218 213 215 214 214 217 220 223 225 228 230 235 241 246 249 249 248 246 246 244 251 253 254 253 252 253 257 251
60 52 38 40 60 57 52 48 52 60 42 178 199 209 206 66 2 14 309 221 222 226 231 232 235 228 241 247 247 247 248 251 251 256 254 249 250 251 251 254 260 258 260
51 55 51 43 41 48 51 55 53 50 61 64 57 72 69 45 14 10 359 269 265 253 254 259 264 263 260 250 231 236 247 249 246 257 256 251 257 264 278 271 264 262 264
48 49 49 60 41 44 48 48 46 57 56 60 57 66 64 36 13 0 337 286 267 287 14 22 15 5 21 350 306 262 245 252 271 266 266 299 9 3 314 311 319 318 330
45 43 48 39 57 29 48 50 48 59 65 63 57 56 56 36 15 5 352 55 77 63 57 40 32 26 5 357 318 296 290 64 65 78 74 66 52 36 19 304 304 268 270
32 43 42 43 51 43 25 51 59 72 70 68 68 59 43 44 24 17 13 63 74 74 59 49 38 38 29 22 23 346 327 43 69 61 50 46 41 37 37 37 352 304 324
36 41 41 35 46 48 38 44 60 69 77 74 69 58 57 37 39 36 32 56 66 70 63 53 42 41 47 49 52 51 61 69 62 66 59 50 45 40 40 36 40 32 49
56 55 57 51 54 50 59 54 58 68 68 66 66 64 53 57 42 45 50 55 68 77 72 68 64 57 55 57 60 62 68 67 65 65 63 55 49 47 47 47 50 58 55
57 60 64 58 59 53 54 55 61 58 61 64 61 58 51 40 52 60 58 64 64 72 74 75 68 63 61 57 52 53 61 64 73 67 66 59 49 45 55 66 62 78 67
60 62 66 58 55 56 59 42 45 54 56 54 58 64 56 48 39 41 52 69 72 79 81 73 75 74 68 57 51 51 52 47 53 63 60 52 50 44 41 28 35 28 41
69 67 66 68 71 68 55 51 50 48 46 57 59 46 58 55 48 54 59 69 75 69 78 68 63 57 55 54 56 51 46 49 49 44 47 42 36 35 37 29 31 39 46
72 67 63 74 81 96 94 80 56 53 56 56 51 52 68 64 61 64 69 71 68 66 73 67 60 55 53 49 46 50 46 45 37 41 44 41 36 27 31 34 37 35 40
63 66 79 71 74 74 70 83 106 82 65 48 54 55 54 54 55 59 63 61 50 64 64 61 58 54 52 49 48 44 48 39 36 42 45 43 38 42 32 34 33 30 36
76 58 65 62 64 68 66 67 61 64 67 66 56 49 53 52 51 47 47 68 62 58 57 58 56 49 44 44 42 41 40 40 42 42 44 40 34 32 35 31 32 20 23
43 49 55 61 57 59 67 68 67 67 66 62 68 68 52 59 57 51 51 54 56 57 53 51 46 46 45 45 42 41 41 44 33 31 35 37 26 34 38 27 57 33 350
68 48 48 62 64 63 59 60 63 63 61 54 46 26 16 38 45 46 47 50 52 49 48 49 46 42 36 38 41 22 32 30 30 37 29 25 23 24 33 25 15 7 10
50 65 45 66 66 62 62 65 67 69 69 69 63 38 27 52 52 50 49 44 44 46 42 42 43 38 31 30 24 26 27 24 21 13 15 16 20 4 12 16 11 7 358
44 49 49 51 53 52 53 52 53 56 58 62 67 66 42 54 54 53 52 46 41 39 36 37 40 37 30 19 13 15 24 19 11 359 4 353 344 7 355 5 350 346 347
44 51 58 62 70 73 65 61 63 63 62 57 53 50 45 48 44 45 47 40 39 40 28 31 35 26 25 27 18 18 12 14 3 359 335 336 337 345 334 344 347 333 348
48 64 67 65 50 67 67 74 83 58 51 54 53 52 48 46 46 49 36 30 25 39 33 45 45 29 12 3 16 20 23 5 341 339 333 325 316 317 318 318 320 337 320
55 65 60 60 60 70 77 59 55 51 49 47 49 50 48 41 39 27 30 37 21 17 42 358 5 358 31 18 14 9 12 355 345 327 306 297 314 300 309 300 322 305 324
46 52 58 59 61 55 54 55 52 51 49 53 53 42 21 24 14 358 21 19 355 344 328 355 354 346 336 320 13 357 335 331 327 328 311 298 298 292 290 289 287 295 301